NUSANTARA SATU

Last updated on Wed Sep 17 2025 00:02:50 GMT+0000 (Coordinated Universal Time)

1 44048U 19009A 25259.18449947 -.00000253 00000+0 00000+0 0 9997 2 44048 0.0338 122.2220 0004474 33.0736 52.5254 1.00272142 24028
UTC large
Height (km)
Speed (km/s)
/
Latitude / Longitude
Inclination (degrees)
Orbital Period (minutes)
Azimuth
Elevation
Range (km)
Doppler Factor

Next 0 passes for location: London (51.5072 / 0.1276)

Sorry there are no passes over London.